| time (UTC) | temp F | wind direction | speed MPH | gust MPH | rain 1hr in | rain 24hr in | rain mn in | humidity % | barometer mb |
| 20260901141005 | 59 | 252 | 0.0 | 0.0 | 0.00 | 0.00 | 0.00 | 85 | 1011.5 |
| 20260901140505 | 59 | 252 | 0.0 | 0.0 | 0.00 | 0.00 | 0.00 | 85 | 1011.6 |
| 20260901140004 | 59 | 252 | 0.0 | 0.0 | 0.00 | 0.00 | 0.00 | 85 | 1011.5 |
| 20260901135505 | 58 | 252 | 0.0 | 0.0 | 0.00 | 0.00 | 0.00 | 85 | 1011.5 |
| 20260901134505 | 58 | 252 | 0.0 | 0.0 | 0.00 | 0.00 | 0.00 | 85 | 1011.4 |
| 20260901134005 | 58 | 252 | 0.0 | 0.0 | 0.00 | 0.00 | 0.00 | 85 | 1011.4 |
| 20260901133005 | 58 | 252 | 0.0 | 0.0 | 0.00 | 0.00 | 0.00 | 85 | 1011.4 |
| 20260901132505 | 58 | 252 | 0.0 | 0.0 | 0.00 | 0.00 | 0.00 | 85 | 1011.3 |
| 20260901132005 | 58 | 252 | 0.0 | 0.0 | 0.00 | 0.00 | 0.00 | 85 | 1011.3 |
| 20260901131006 | 58 | 252 | 0.0 | 0.0 | 0.00 | 0.00 | 0.00 | 85 | 1011.4 |
| 20260901130505 | 58 | 252 | 0.0 | 0.0 | 0.00 | 0.00 | 0.00 | 85 | 1011.3 |
| 20260901125505 | 58 | 252 | 0.0 | 0.0 | 0.00 | 0.00 | 0.00 | 85 | 1011.3 |
| 20260901125004 | 58 | 252 | 0.0 | 0.0 | 0.00 | 0.00 | 0.00 | 85 | 1011.2 |
| 20260901124506 | 58 | 252 | 1.0 | 2.0 | 0.00 | 0.00 | 0.00 | 85 | 1011.3 |
| 20260901124005 | 58 | 252 | 1.0 | 2.0 | 0.00 | 0.00 | 0.00 | 85 | 1011.2 |
| 20260901123004 | 58 | 252 | 0.0 | 0.0 | 0.00 | 0.00 | 0.00 | 86 | 1011.2 |
| 20260901122504 | 58 | 252 | 0.0 | 0.0 | 0.00 | 0.00 | 0.00 | 86 | 1011.2 |
| 20260901122005 | 58 | 252 | 0.0 | 0.0 | 0.00 | 0.00 | 0.00 | 86 | 1011.3 |
| 20260901121505 | 58 | 252 | 1.0 | 1.0 | 0.00 | 0.00 | 0.00 | 86 | 1011.2 |
| 20260901121005 | 58 | 252 | 0.0 | 0.0 | 0.00 | 0.00 | 0.00 | 86 | 1011.1 |
| 20260901120505 | 58 | 252 | 0.0 | 2.0 | 0.00 | 0.00 | 0.00 | 86 | 1011.1 |
| 20260901120004 | 58 | 252 | 0.0 | 0.0 | 0.00 | 0.00 | 0.00 | 86 | 1011.0 |
| 20260901115505 | 58 | 252 | 0.0 | 1.0 | 0.00 | 0.00 | 0.00 | 86 | 1011.0 |
| 20260901115005 | 57 | 252 | 0.0 | 2.0 | 0.00 | 0.00 | 0.00 | 86 | 1011.1 |
| 20260901114505 | 57 | 252 | 0.0 | 2.0 | 0.00 | 0.00 | 0.00 | 87 | 1011.2 |
| 20260901114005 | 57 | 229 | 1.0 | 2.0 | 0.00 | 0.00 | 0.00 | 87 | 1011.2 |
| 20260901113505 | 57 | 206 | 0.0 | 2.0 | 0.00 | 0.00 | 0.00 | 86 | 1011.2 |
| 20260901113005 | 57 | 206 | 1.0 | 2.0 | 0.00 | 0.00 | 0.00 | 86 | 1011.2 |
| 20260901112005 | 57 | 206 | 0.0 | 2.0 | 0.00 | 0.00 | 0.00 | 86 | 1011.0 |
| 20260901111504 | 57 | 202 | 0.0 | 0.0 | 0.00 | 0.00 | 0.00 | 86 | 1011.0 |
| 20260901111005 | 57 | 202 | 0.0 | 0.0 | 0.00 | 0.00 | 0.00 | 86 | 1011.0 |
| 20260901110005 | 57 | 202 | 0.0 | 0.0 | 0.00 | 0.00 | 0.00 | 85 | 1010.9 |
| 20260901105505 | 57 | 202 | 0.0 | 0.0 | 0.00 | 0.00 | 0.00 | 85 | 1010.8 |
| 20260901105004 | 57 | 202 | 0.0 | 0.0 | 0.00 | 0.00 | 0.00 | 85 | 1010.7 |
| 20260901104505 | 58 | 202 | 0.0 | 0.0 | 0.00 | 0.00 | 0.00 | 85 | 1010.6 |
| 20260901103505 | 58 | 199 | 1.0 | 2.0 | 0.00 | 0.00 | 0.00 | 84 | 1010.5 |
| 20260901103005 | 58 | 325 | 1.0 | 3.0 | 0.00 | 0.00 | 0.00 | 84 | 1010.5 |
| 20260901102505 | 58 | 191 | 2.0 | 5.0 | 0.00 | 0.00 | 0.00 | 84 | 1010.5 |
| 20260901102005 | 58 | 186 | 2.0 | 5.0 | 0.00 | 0.00 | 0.00 | 84 | 1010.6 |
| 20260901101504 | 58 | 346 | 1.0 | 5.0 | 0.00 | 0.00 | 0.00 | 84 | 1010.6 |
| 20260901101005 | 58 | 153 | 1.0 | 3.0 | 0.00 | 0.00 | 0.00 | 84 | 1010.6 |
| 20260901100505 | 58 | 198 | 3.0 | 7.0 | 0.00 | 0.00 | 0.00 | 84 | 1010.6 |
| 20260901100005 | 58 | 183 | 2.0 | 8.0 | 0.00 | 0.00 | 0.00 | 84 | 1010.7 |
| 20260901095505 | 59 | 186 | 3.0 | 6.0 | 0.00 | 0.00 | 0.00 | 84 | 1010.6 |
| 20260901095005 | 59 | 191 | 6.0 | 10.0 | 0.00 | 0.00 | 0.00 | 84 | 1010.5 |
| 20260901094505 | 59 | 185 | 2.0 | 6.0 | 0.00 | 0.00 | 0.00 | 83 | 1010.5 |
| 20260901093504 | 59 | 256 | 0.0 | 2.0 | 0.00 | 0.00 | 0.00 | 83 | 1010.4 |
| 20260901093005 | 59 | 256 | 1.0 | 3.0 | 0.00 | 0.00 | 0.00 | 83 | 1010.2 |
| 20260901092004 | 59 | 197 | 1.0 | 2.0 | 0.00 | 0.00 | 0.00 | 82 | 1010.1 |
| 20260901091505 | 59 | 242 | 1.0 | 3.0 | 0.00 | 0.00 | 0.00 | 82 | 1010.1 |
| 20260901091005 | 60 | 189 | 2.0 | 3.0 | 0.00 | 0.00 | 0.00 | 82 | 1010.1 |
| 20260901090505 | 60 | 189 | 1.0 | 5.0 | 0.00 | 0.00 | 0.00 | 82 | 1010.1 |
| 20260901085504 | 60 | 190 | 2.0 | 3.0 | 0.00 | 0.00 | 0.00 | 81 | 1010.1 |
| 20260901085005 | 60 | 337 | 3.0 | 5.0 | 0.00 | 0.00 | 0.00 | 81 | 1010.1 |
| 20260901084505 | 60 | 0 | 2.0 | 5.0 | 0.00 | 0.00 | 0.00 | 80 | 1010.0 |
| 20260901084004 | 60 | 208 | 2.0 | 5.0 | 0.00 | 0.00 | 0.00 | 80 | 1010.1 |
| 20260901083505 | 60 | 195 | 3.0 | 7.0 | 0.00 | 0.00 | 0.00 | 80 | 1010.1 |
| 20260901083004 | 61 | 182 | 3.0 | 6.0 | 0.00 | 0.00 | 0.00 | 80 | 1010.1 |
| 20260901082504 | 61 | 205 | 5.0 | 7.0 | 0.00 | 0.00 | 0.00 | 80 | 1010.1 |
| 20260901082005 | 61 | 195 | 6.0 | 12.0 | 0.00 | 0.00 | 0.00 | 80 | 1010.1 |
| 20260901081505 | 61 | 208 | 5.0 | 10.0 | 0.00 | 0.00 | 0.00 | 79 | 1010.1 |
| 20260901081004 | 61 | 185 | 3.0 | 7.0 | 0.00 | 0.00 | 0.00 | 79 | 1010.1 |
| 20260901080505 | 61 | 198 | 3.0 | 7.0 | 0.00 | 0.00 | 0.00 | 79 | 1009.9 |
| 20260901080004 | 62 | 205 | 3.0 | 8.0 | 0.00 | 0.00 | 0.00 | 78 | 1009.9 |
| 20260901075505 | 62 | 196 | 5.0 | 9.0 | 0.00 | 0.00 | 0.00 | 78 | 1009.8 |
| 20260901075005 | 62 | 175 | 4.0 | 8.0 | 0.00 | 0.00 | 0.00 | 77 | 1009.8 |
| 20260901074505 | 62 | 195 | 5.0 | 9.0 | 0.00 | 0.00 | 0.00 | 77 | 1009.8 |
| 20260901074005 | 62 | 188 | 5.0 | 9.0 | 0.00 | 0.00 | 0.00 | 77 | 1009.7 |
| 20260901073504 | 62 | 1 | 4.0 | 9.0 | 0.00 | 0.00 | 0.00 | 77 | 1009.7 |
| 20260901073005 | 62 | 192 | 2.0 | 6.0 | 0.00 | 0.00 | 0.00 | 77 | 1009.7 |
| 20260901071505 | 62 | 175 | 2.0 | 5.0 | 0.00 | 0.00 | 0.00 | 76 | 1009.5 |
| 20260901070504 | 63 | 162 | 1.0 | 2.0 | 0.00 | 0.00 | 0.00 | 75 | 1009.3 |
| 20260901070005 | 63 | 184 | 2.0 | 3.0 | 0.00 | 0.00 | 0.00 | 75 | 1009.2 |
| 20260901065504 | 63 | 190 | 2.0 | 2.0 | 0.00 | 0.00 | 0.00 | 75 | 1009.2 |
| 20260901064505 | 64 | 183 | 1.0 | 2.0 | 0.00 | 0.00 | 0.00 | 73 | 1009.1 |
| 20260901064005 | 65 | 183 | 1.0 | 2.0 | 0.00 | 0.00 | 0.00 | 72 | 1009.1 |
| 20260901063505 | 65 | 183 | 1.0 | 3.0 | 0.00 | 0.00 | 0.00 | 72 | 1009.0 |
| 20260901063005 | 65 | 152 | 2.0 | 3.0 | 0.00 | 0.00 | 0.00 | 72 | 1008.9 |
| 20260901062504 | 65 | 138 | 2.0 | 3.0 | 0.00 | 0.00 | 0.00 | 72 | 1008.9 |
| 20260901062004 | 65 | 109 | 2.0 | 2.0 | 0.00 | 0.00 | 0.00 | 72 | 1008.8 |
| 20260901061505 | 65 | 160 | 1.0 | 2.0 | 0.00 | 0.00 | 0.00 | 71 | 1008.7 |
| 20260901061004 | 65 | 227 | 1.0 | 1.0 | 0.00 | 0.00 | 0.00 | 71 | 1008.6 |
| 20260901060505 | 66 | 226 | 2.0 | 5.0 | 0.00 | 0.00 | 0.00 | 70 | 1008.6 |
| 20260901060005 | 66 | 293 | 1.0 | 2.0 | 0.00 | 0.00 | 0.00 | 70 | 1008.5 |
| 20260901055505 | 66 | 311 | 0.0 | 2.0 | 0.00 | 0.00 | 0.00 | 70 | 1008.4 |
| 20260901055004 | 66 | 325 | 1.0 | 3.0 | 0.00 | 0.00 | 0.00 | 70 | 1008.4 |
| 20260901054505 | 66 | 337 | 2.0 | 2.0 | 0.00 | 0.00 | 0.00 | 69 | 1008.4 |
| 20260901054005 | 67 | 333 | 2.0 | 2.0 | 0.00 | 0.00 | 0.00 | 69 | 1008.4 |
| 20260901053504 | 67 | 281 | 1.0 | 2.0 | 0.00 | 0.00 | 0.00 | 68 | 1008.4 |
| 20260901053005 | 67 | 281 | 1.0 | 2.0 | 0.00 | 0.00 | 0.00 | 68 | 1008.4 |
| 20260901052505 | 67 | 281 | 0.0 | 2.0 | 0.00 | 0.00 | 0.00 | 67 | 1008.4 |
| 20260901052005 | 68 | 320 | 2.0 | 3.0 | 0.00 | 0.00 | 0.00 | 67 | 1008.3 |
| 20260901051004 | 68 | 207 | 1.0 | 2.0 | 0.00 | 0.00 | 0.00 | 67 | 1008.2 |
| 20260901050504 | 68 | 320 | 0.0 | 2.0 | 0.00 | 0.00 | 0.00 | 66 | 1008.2 |
| 20260901050004 | 69 | 279 | 1.0 | 1.0 | 0.00 | 0.00 | 0.00 | 65 | 1008.3 |
| 20260901045505 | 69 | 7 | 1.0 | 3.0 | 0.00 | 0.00 | 0.00 | 64 | 1008.3 |
| 20260901045004 | 69 | 315 | 0.0 | 2.0 | 0.00 | 0.00 | 0.00 | 64 | 1008.3 |
| 20260901044506 | 70 | 347 | 1.0 | 2.0 | 0.00 | 0.00 | 0.00 | 63 | 1008.3 |
| 20260901044005 | 70 | 291 | 1.0 | 2.0 | 0.00 | 0.00 | 0.00 | 62 | 1008.3 |
| 20260901043005 | 71 | 209 | 0.0 | 2.0 | 0.00 | 0.00 | 0.00 | 62 | 1008.1 |
| 20260901042504 | 71 | 209 | 1.0 | 3.0 | 0.00 | 0.00 | 0.00 | 60 | 1008.1 |
| 20260901042005 | 72 | 234 | 1.0 | 6.0 | 0.00 | 0.00 | 0.00 | 60 | 1008.0 |
| 20260901041005 | 72 | 31 | 1.0 | 2.0 | 0.00 | 0.00 | 0.00 | 59 | 1007.9 |
| 20260901040504 | 73 | 29 | 1.0 | 2.0 | 0.00 | 0.00 | 0.00 | 59 | 1007.7 |
| 20260901040004 | 73 | 0 | 2.0 | 3.0 | 0.00 | 0.00 | 0.00 | 58 | 1007.7 |
| 20260901035504 | 73 | 315 | 0.0 | 1.0 | 0.00 | 0.00 | 0.00 | 57 | 1007.6 |
| 20260901035005 | 73 | 316 | 1.0 | 3.0 | 0.00 | 0.00 | 0.00 | 57 | 1007.6 |
| 20260901034505 | 74 | 288 | 2.0 | 3.0 | 0.00 | 0.00 | 0.00 | 56 | 1007.4 |
| 20260901034005 | 74 | 287 | 2.0 | 3.0 | 0.00 | 0.00 | 0.00 | 56 | 1007.2 |
| 20260901033504 | 74 | 319 | 2.0 | 5.0 | 0.00 | 0.00 | 0.00 | 56 | 1007.1 |
| 20260901033005 | 74 | 326 | 2.0 | 8.0 | 0.00 | 0.00 | 0.00 | 55 | 1006.9 |
| 20260901032504 | 75 | 325 | 3.0 | 8.0 | 0.00 | 0.00 | 0.00 | 54 | 1006.8 |
| 20260901032005 | 75 | 343 | 5.0 | 7.0 | 0.00 | 0.00 | 0.00 | 54 | 1006.6 |
| 20260901031505 | 76 | 329 | 3.0 | 5.0 | 0.00 | 0.00 | 0.00 | 53 | 1006.6 |
| 20260901030505 | 77 | 330 | 2.0 | 5.0 | 0.00 | 0.00 | 0.00 | 51 | 1006.7 |
| 20260901030005 | 77 | 326 | 2.0 | 5.0 | 0.00 | 0.00 | 0.00 | 50 | 1006.8 |
| 20260901025505 | 78 | 331 | 2.0 | 3.0 | 0.00 | 0.00 | 0.00 | 50 | 1006.8 |
| 20260901025004 | 78 | 335 | 3.0 | 5.0 | 0.00 | 0.00 | 0.00 | 49 | 1006.8 |
| 20260901024504 | 78 | 327 | 3.0 | 8.0 | 0.00 | 0.00 | 0.00 | 48 | 1006.7 |
| 20260901024005 | 79 | 332 | 3.0 | 6.0 | 0.00 | 0.00 | 0.00 | 46 | 1006.7 |
| 20260901023004 | 80 | 335 | 1.0 | 2.0 | 0.00 | 0.00 | 0.00 | 42 | 1006.6 |
| 20260901022504 | 81 | 325 | 1.0 | 2.0 | 0.00 | 0.00 | 0.00 | 39 | 1006.6 |
| 20260901022004 | 82 | 324 | 2.0 | 3.0 | 0.00 | 0.00 | 0.00 | 39 | 1006.6 |
| 20260901021505 | 83 | 223 | 1.0 | 2.0 | 0.00 | 0.00 | 0.00 | 38 | 1006.5 |
| 20260901021005 | 84 | 205 | 2.0 | 3.0 | 0.00 | 0.00 | 0.00 | 37 | 1006.5 |
| 20260901020505 | 84 | 213 | 1.0 | 3.0 | 0.00 | 0.00 | 0.00 | 35 | 1006.4 |
| 20260901020005 | 85 | 200 | 4.0 | 7.0 | 0.00 | 0.00 | 0.00 | 33 | 1006.4 |
| 20260901015004 | 86 | 210 | 2.0 | 3.0 | 0.00 | 0.00 | 0.00 | 33 | 1006.4 |
| 20260901014505 | 87 | 207 | 1.0 | 2.0 | 0.00 | 0.00 | 0.00 | 30 | 1006.4 |
| 20260901014004 | 87 | 188 | 1.0 | 2.0 | 0.00 | 0.00 | 0.00 | 29 | 1006.3 |
| 20260901013504 | 87 | 164 | 1.0 | 3.0 | 0.00 | 0.00 | 0.00 | 25 | 1006.4 |
| 20260901013005 | 87 | 192 | 2.0 | 3.0 | 0.00 | 0.00 | 0.00 | 26 | 1006.3 |
| 20260901012505 | 87 | 185 | 2.0 | 5.0 | 0.00 | 0.00 | 0.00 | 27 | 1006.3 |
| 20260901012005 | 87 | 189 | 1.0 | 2.0 | 0.00 | 0.00 | 0.00 | 26 | 1006.4 |
| 20260901011004 | 87 | 122 | 1.0 | 2.0 | 0.00 | 0.00 | 0.00 | 24 | 1006.4 |
| 20260901010005 | 87 | 127 | 2.0 | 3.0 | 0.00 | 0.00 | 0.00 | 24 | 1006.5 |
| 20260901005505 | 87 | 108 | 1.0 | 2.0 | 0.00 | 0.00 | 0.00 | 26 | 1006.5 |
| 20260901005005 | 87 | 70 | 1.0 | 2.0 | 0.00 | 0.00 | 0.00 | 27 | 1006.5 |
| 20260901004505 | 87 | 97 | 1.0 | 3.0 | 0.00 | 0.00 | 0.00 | 26 | 1006.4 |
| 20260901003505 | 86 | 50 | 2.0 | 5.0 | 0.00 | 0.00 | 0.00 | 26 | 1006.6 |
| 20260901003004 | 86 | 59 | 2.0 | 5.0 | 0.00 | 0.00 | 0.00 | 28 | 1006.5 |
| 20260901002505 | 86 | 82 | 2.0 | 5.0 | 0.00 | 0.00 | 0.00 | 28 | 1006.6 |
| 20260901001505 | 86 | 6 | 1.0 | 2.0 | 0.00 | 0.00 | 0.00 | 28 | 1006.7 |
| 20260901001005 | 86 | 9 | 1.0 | 3.0 | 0.00 | 0.00 | 0.00 | 26 | 1006.6 |
| 20260901000504 | 86 | 84 | 2.0 | 5.0 | 0.00 | 0.00 | 0.00 | 28 | 1006.7 |
| 20260901000004 | 85 | 342 | 1.0 | 2.0 | 0.00 | 0.00 | 0.00 | 28 | 1006.7 |
| 20260831235505 | 85 | 0 | 1.0 | 2.0 | 0.00 | 0.00 | 0.00 | 28 | 1006.6 |
| 20260831235005 | 85 | 29 | 2.0 | 3.0 | 0.00 | 0.00 | 0.00 | 28 | 1006.7 |
| 20260831234504 | 85 | 340 | 1.0 | 2.0 | 0.00 | 0.00 | 0.00 | 30 | 1006.7 |
| 20260831234004 | 85 | 356 | 2.0 | 3.0 | 0.00 | 0.00 | 0.00 | 29 | 1006.8 |
| 20260831233504 | 85 | 24 | 1.0 | 3.0 | 0.00 | 0.00 | 0.00 | 30 | 1006.8 |
| 20260831233005 | 85 | 4 | 2.0 | 3.0 | 0.00 | 0.00 | 0.00 | 30 | 1006.7 |
| 20260831232505 | 85 | 0 | 1.0 | 2.0 | 0.00 | 0.00 | 0.00 | 28 | 1006.8 |
| 20260831232004 | 84 | 20 | 2.0 | 3.0 | 0.00 | 0.00 | 0.00 | 29 | 1006.9 |
| 20260831231504 | 85 | 6 | 1.0 | 2.0 | 0.00 | 0.00 | 0.00 | 30 | 1006.9 |
| 20260831231004 | 84 | 349 | 1.0 | 3.0 | 0.00 | 0.00 | 0.00 | 31 | 1007.0 |
| 20260831230504 | 84 | 32 | 1.0 | 2.0 | 0.00 | 0.00 | 0.00 | 32 | 1007.1 |
| 20260831230005 | 84 | 6 | 1.0 | 3.0 | 0.00 | 0.00 | 0.00 | 30 | 1007.1 |
| 20260831225504 | 84 | 16 | 2.0 | 3.0 | 0.00 | 0.00 | 0.00 | 34 | 1007.2 |
| 20260831225005 | 84 | 83 | 2.0 | 3.0 | 0.00 | 0.00 | 0.00 | 33 | 1007.2 |
| 20260831224505 | 84 | 27 | 3.0 | 8.0 | 0.00 | 0.00 | 0.00 | 34 | 1007.2 |
| 20260831224005 | 84 | 77 | 3.0 | 8.0 | 0.00 | 0.00 | 0.00 | 34 | 1007.3 |
| 20260831223504 | 84 | 71 | 3.0 | 6.0 | 0.00 | 0.00 | 0.00 | 35 | 1007.3 |
| 20260831223005 | 83 | 50 | 3.0 | 7.0 | 0.00 | 0.00 | 0.00 | 34 | 1007.3 |
| 20260831222504 | 83 | 98 | 3.0 | 7.0 | 0.00 | 0.00 | 0.00 | 35 | 1007.4 |
| 20260831221004 | 84 | 79 | 5.0 | 8.0 | 0.00 | 0.00 | 0.00 | 34 | 1007.5 |
| 20260831220505 | 83 | 221 | 1.0 | 5.0 | 0.00 | 0.00 | 0.00 | 36 | 1007.6 |
| 20260831220004 | 82 | 72 | 2.0 | 5.0 | 0.00 | 0.00 | 0.00 | 36 | 1007.6 |
| 20260831215504 | 83 | 83 | 3.0 | 5.0 | 0.00 | 0.00 | 0.00 | 35 | 1007.7 |
| 20260831214504 | 83 | 109 | 2.0 | 6.0 | 0.00 | 0.00 | 0.00 | 36 | 1007.7 |
| 20260831213504 | 82 | 340 | 1.0 | 2.0 | 0.00 | 0.00 | 0.00 | 38 | 1007.8 |
| 20260831212504 | 81 | 8 | 2.0 | 5.0 | 0.00 | 0.00 | 0.00 | 38 | 1008.0 |
| 20260831212004 | 81 | 7 | 1.0 | 2.0 | 0.00 | 0.00 | 0.00 | 39 | 1008.0 |
| 20260831211504 | 81 | 317 | 2.0 | 2.0 | 0.00 | 0.00 | 0.00 | 38 | 1008.1 |
| 20260831210505 | 80 | 3 | 2.0 | 3.0 | 0.00 | 0.00 | 0.00 | 38 | 1008.3 |
| 20260831210004 | 80 | 327 | 1.0 | 2.0 | 0.00 | 0.00 | 0.00 | 39 | 1008.4 |
| 20260831205504 | 80 | 248 | 2.0 | 3.0 | 0.00 | 0.00 | 0.00 | 37 | 1008.4 |
| 20260831205004 | 80 | 163 | 3.0 | 5.0 | 0.00 | 0.00 | 0.00 | 38 | 1008.4 |
| 20260831204505 | 80 | 85 | 3.0 | 8.0 | 0.00 | 0.00 | 0.00 | 38 | 1008.4 |
| 20260831204005 | 80 | 42 | 2.0 | 6.0 | 0.00 | 0.00 | 0.00 | 38 | 1008.5 |
| 20260831203505 | 80 | 67 | 1.0 | 3.0 | 0.00 | 0.00 | 0.00 | 38 | 1008.6 |
| 20260831203005 | 79 | 62 | 3.0 | 5.0 | 0.00 | 0.00 | 0.00 | 38 | 1008.7 |
| 20260831202505 | 80 | 351 | 1.0 | 5.0 | 0.00 | 0.00 | 0.00 | 36 | 1008.8 |
| 20260831202004 | 80 | 96 | 4.0 | 8.0 | 0.00 | 0.00 | 0.00 | 36 | 1008.9 |
| 20260831200504 | 79 | 224 | 1.0 | 3.0 | 0.00 | 0.00 | 0.00 | 39 | 1009.0 |
| 20260831200004 | 78 | 152 | 3.0 | 6.0 | 0.00 | 0.00 | 0.00 | 40 | 1009.0 |
| 20260831195504 | 79 | 90 | 5.0 | 8.0 | 0.00 | 0.00 | 0.00 | 40 | 1009.1 |
| 20260831195004 | 79 | 215 | 1.0 | 2.0 | 0.00 | 0.00 | 0.00 | 41 | 1009.1 |
| 20260831194504 | 78 | 100 | 2.0 | 6.0 | 0.00 | 0.00 | 0.00 | 42 | 1009.2 |
| 20260831194005 | 78 | 244 | 1.0 | 9.0 | 0.00 | 0.00 | 0.00 | 42 | 1009.2 |
| 20260831193504 | 78 | 93 | 1.0 | 2.0 | 0.00 | 0.00 | 0.00 | 43 | 1009.3 |
| 20260831193005 | 78 | 38 | 2.0 | 5.0 | 0.00 | 0.00 | 0.00 | 43 | 1009.3 |
| 20260831192004 | 77 | 47 | 1.0 | 5.0 | 0.00 | 0.00 | 0.00 | 42 | 1009.4 |
| 20260831191505 | 77 | 301 | 2.0 | 5.0 | 0.00 | 0.00 | 0.00 | 43 | 1009.4 |
| 20260831191004 | 76 | 246 | 1.0 | 2.0 | 0.00 | 0.00 | 0.00 | 43 | 1009.5 |
| 20260831190504 | 77 | 23 | 2.0 | 3.0 | 0.00 | 0.00 | 0.00 | 46 | 1009.5 |
| 20260831190005 | 76 | 184 | 1.0 | 5.0 | 0.00 | 0.00 | 0.00 | 43 | 1009.6 |
| 20260831185004 | 76 | 180 | 1.0 | 2.0 | 0.00 | 0.00 | 0.00 | 46 | 1009.8 |
| 20260831184505 | 75 | 314 | 2.0 | 5.0 | 0.00 | 0.00 | 0.00 | 50 | 1009.8 |
| 20260831184004 | 74 | 10 | 3.0 | 5.0 | 0.00 | 0.00 | 0.00 | 49 | 1009.8 |
| 20260831183505 | 75 | 20 | 1.0 | 3.0 | 0.00 | 0.00 | 0.00 | 51 | 1009.9 |
| 20260831183004 | 74 | 4 | 3.0 | 6.0 | 0.00 | 0.00 | 0.00 | 50 | 1010.0 |
| 20260831182504 | 74 | 10 | 2.0 | 6.0 | 0.00 | 0.00 | 0.00 | 52 | 1010.0 |
| 20260831182005 | 74 | 12 | 4.0 | 8.0 | 0.00 | 0.00 | 0.00 | 49 | 1010.1 |
| 20260831181004 | 73 | 52 | 2.0 | 3.0 | 0.00 | 0.00 | 0.00 | 53 | 1010.1 |
| 20260831180504 | 73 | 262 | 1.0 | 3.0 | 0.00 | 0.00 | 0.00 | 54 | 1010.3 |
| 20260831180004 | 73 | 309 | 1.0 | 5.0 | 0.00 | 0.00 | 0.00 | 54 | 1010.3 |
| 20260831175504 | 73 | 19 | 3.0 | 6.0 | 0.00 | 0.00 | 0.00 | 54 | 1010.4 |
| 20260831175004 | 72 | 32 | 2.0 | 3.0 | 0.00 | 0.00 | 0.00 | 56 | 1010.4 |
| 20260831174504 | 72 | 47 | 1.0 | 2.0 | 0.00 | 0.00 | 0.00 | 56 | 1010.5 |
| 20260831174005 | 72 | 64 | 3.0 | 6.0 | 0.00 | 0.00 | 0.00 | 56 | 1010.5 |
| 20260831173005 | 71 | 55 | 1.0 | 3.0 | 0.00 | 0.00 | 0.00 | 58 | 1010.6 |
| 20260831172504 | 70 | 17 | 1.0 | 5.0 | 0.00 | 0.00 | 0.00 | 59 | 1010.6 |
| 20260831172004 | 70 | 6 | 2.0 | 3.0 | 0.00 | 0.00 | 0.00 | 60 | 1010.7 |
| 20260831171504 | 69 | 28 | 3.0 | 3.0 | 0.00 | 0.00 | 0.00 | 61 | 1010.7 |
| 20260831171004 | 69 | 20 | 2.0 | 3.0 | 0.00 | 0.00 | 0.00 | 61 | 1010.8 |
| 20260831170005 | 68 | 6 | 2.0 | 2.0 | 0.00 | 0.00 | 0.00 | 62 | 1010.9 |
| 20260831165504 | 68 | 20 | 1.0 | 3.0 | 0.00 | 0.00 | 0.00 | 63 | 1010.9 |
| 20260831165004 | 67 | 327 | 2.0 | 5.0 | 0.00 | 0.00 | 0.00 | 63 | 1011.0 |
| 20260831164504 | 67 | 11 | 2.0 | 5.0 | 0.00 | 0.00 | 0.00 | 64 | 1011.1 |
| 20260831164004 | 67 | 23 | 2.0 | 5.0 | 0.00 | 0.00 | 0.00 | 64 | 1011.2 |
| 20260831163005 | 66 | 331 | 2.0 | 3.0 | 0.00 | 0.00 | 0.00 | 64 | 1011.2 |
| 20260831162505 | 66 | 4 | 2.0 | 5.0 | 0.00 | 0.00 | 0.00 | 65 | 1011.3 |
| 20260831162004 | 66 | 0 | 3.0 | 6.0 | 0.00 | 0.00 | 0.00 | 66 | 1011.2 |
| 20260831161504 | 66 | 21 | 2.0 | 5.0 | 0.00 | 0.00 | 0.00 | 66 | 1011.3 |
| 20260831160504 | 65 | 24 | 2.0 | 5.0 | 0.00 | 0.00 | 0.00 | 68 | 1011.4 |
| 20260831160004 | 65 | 22 | 3.0 | 6.0 | 0.00 | 0.00 | 0.00 | 67 | 1011.3 |
| 20260831155504 | 65 | 352 | 2.0 | 6.0 | 0.00 | 0.00 | 0.00 | 68 | 1011.4 |
| 20260831155004 | 64 | 352 | 3.0 | 5.0 | 0.00 | 0.00 | 0.00 | 70 | 1011.4 |
| 20260831154004 | 62 | 86 | 1.0 | 2.0 | 0.00 | 0.00 | 0.00 | 74 | 1011.5 |
| 20260831153004 | 61 | 34 | 1.0 | 2.0 | 0.00 | 0.00 | 0.00 | 77 | 1011.5 |
| 20260831152504 | 60 | 13 | 1.0 | 2.0 | 0.00 | 0.00 | 0.00 | 79 | 1011.5 |
| 20260831152004 | 59 | 84 | 1.0 | 2.0 | 0.00 | 0.00 | 0.00 | 80 | 1011.6 |
| 20260831151504 | 58 | 84 | 1.0 | 2.0 | 0.00 | 0.00 | 0.00 | 81 | 1011.6 |
| 20260831151004 | 57 | 84 | 0.0 | 1.0 | 0.00 | 0.00 | 0.00 | 82 | 1011.6 |
| 20260831150504 | 57 | 85 | 0.0 | 1.0 | 0.00 | 0.00 | 0.00 | 82 | 1011.7 |
| 20260831150005 | 57 | 86 | 1.0 | 2.0 | 0.00 | 0.00 | 0.00 | 82 | 1011.7 |
| 20260831145506 | 56 | 94 | 1.0 | 2.0 | 0.00 | 0.00 | 0.00 | 82 | 1011.7 |
| 20260831145005 | 56 | 94 | 1.0 | 2.0 | 0.00 | 0.00 | 0.00 | 82 | 1011.7 |
| 20260831144505 | 56 | 94 | 1.0 | 2.0 | 0.00 | 0.00 | 0.00 | 82 | 1011.7 |
| 20260831144004 | 56 | 94 | 1.0 | 2.0 | 0.00 | 0.00 | 0.00 | 82 | 1011.8 |
| 20260831143504 | 55 | 103 | 1.0 | 2.0 | 0.00 | 0.00 | 0.00 | 82 | 1011.7 |
| 20260831143005 | 55 | 144 | 1.0 | 2.0 | 0.00 | 0.00 | 0.00 | 83 | 1011.7 |
| 20260831142504 | 55 | 144 | 0.0 | 2.0 | 0.00 | 0.00 | 0.00 | 83 | 1011.8 |
| 20260831142004 | 55 | 144 | 0.0 | 2.0 | 0.00 | 0.00 | 0.00 | 83 | 1011.7 |